Weather in Dausuz

Russia / Karachay-Cherkess Republic     43°47′46″N   41°32′54″E
temp.,
°C
wind,
m/s
gust,
m/s
humid.,
%
clouds,
%
prec.,
mm/h
press.,
hPa
HPBL,
m
28 september, tue
tue2800:00+6ne119778 0.0 1017134
03:00+6se119065 0.0 101742
06:00+4ssw22907 0.0 101817
09:00+9nne217447 0.0 1016572
12:00+7ne2294100 0.8 1017332
15:00+7nne2396100 1.1 1018352
18:00+6nne1298100 0.1 1020170
21:00+6e019883 0.1 102176
29 september, wed
wed2900:00+5sse119534 0.0 102126
03:00+3s22927 0.0 102216
06:00+3ssw228938 0.0 102222
09:00+8nne217534 0.0 1020382
12:00+11nne3266100 0.0 10181078
15:00+9n2278100 0.1 1019682
18:00+7n1293100 0.1 1021232
21:00+5nne1199100 0.1 1022165
30 september, thu
thu3000:00+5ne1199100 0.1 1022135
03:00+5ne1199100 0.1 1022138
06:00+5ene119999 0.0 1023146
09:00+7ne219088 0.0 1022363
12:00+8nne218079 0.0 1021612
15:00+8n217792 0.1 1021577
18:00+5ne129291 0.0 1022187
21:00+4ne129884 0.0 1023105
1 october, fri
fri100:00+4ne119797 0.0 1023126
03:00+3ne119797 0.0 1022154
06:00+3ene119789 0.0 1022164
09:00+5ne219097 0.0 1022384
12:00+6nne2185100 0.5 1021532
15:00+5n2298100 5.4 1023224
18:00+5ene1299100 0.1 1024127
21:00+4ene119958 0.1 102572
2 october, sat
sat200:00+3s119420 0.0 102518
03:00+2ssw11915 0.0 102518
06:00+2s21905 0.0 102518
09:00+8ne11780 0.0 1023274
12:00+12nne315915 0.0 1021768
15:00+12nne226049 0.1 10201042
18:00+6nne019314 0.0 102211
21:00+5s1192100 0.0 102314